Change the Weather History Date:

Friday, August 9, 2013

  Actual Average Record
Temperature  
Mean Temperature 68 °F -  
Max Temperature 80 °F 81 °F 98 °F (1949)
Min Temperature 57 °F 57 °F 39 °F (1964)
Cooling Degree Days 3    
Growing Degree Days 18 (Base 50)    
Moisture  
Dew Point 54 °F    
Average Humidity 62    
Maximum Humidity 93    
Minimum Humidity 36    
Precipitation  
Precipitation 0.00 in - - ()
Sea Level Pressure  
Sea Level Pressure 30.02 in    
Wind  
Wind Speed 4 mph (NW)    
Max Wind Speed 17 mph    
Max Gust Speed 22 mph    
Visibility 10 miles    
Events      
Averages and records for this station are not official NWS values.
T = Trace of Precipitation, MM = Missing Value Source: NWS Daily Summary

Daily Weather History Graph

Daily Weather History Graph

Search for Another Location

Airport or City:

Trip Planner

Search our weather history database for the weather conditions in past years. The results will help you decide how hot, cold, wet, or windy it might be!

Date:

Astronomy

Aug. 09, 2013 Rise Set
Actual Time 5:55 AM CDT 8:12 PM CDT
Civil Twilight 5:23 AM CDT 8:45 PM CDT
Nautical Twilight 4:43 AM CDT 9:24 PM CDT
Astronomical Twilight 3:58 AM CDT 10:09 PM CDT
Moon 8:51 AM CDT (8/9) 9:12 PM CDT (8/9)
Length of Visible Light 15h 21m
Length of Day
14h 17m
Waxing Crescent, 8% of the Moon is Illuminated
Aug 9
Waxing Crescent
Aug 14
First Quarter
Aug 20
Full
Aug 28
Last Quarter
Sep 5
New

Hourly Weather History & Observations

Time (CDT) Temp. Dew Point Humidity Pressure Visibility Wind Dir Wind Speed Gust Speed Precip Events Conditions
12:54 AM 61.0 °F 55.9 °F 83% 30.00 in 10.0 mi Calm Calm - N/A   Overcast
1:54 AM 62.1 °F 55.9 °F 80% 30.00 in 10.0 mi Calm Calm - N/A   Overcast
2:54 AM 63.0 °F 57.0 °F 81% 30.00 in 10.0 mi Calm Calm - N/A   Overcast
3:54 AM 62.1 °F 57.0 °F 84% 29.99 in 10.0 mi Calm Calm - N/A   Overcast
4:54 AM 59.0 °F 57.0 °F 93% 29.99 in 10.0 mi Calm Calm - N/A   Mostly Cloudy
5:54 AM 57.9 °F 55.9 °F 93% 29.99 in 10.0 mi Calm Calm - N/A   Mostly Cloudy
6:54 AM 62.1 °F 55.9 °F 80% 30.00 in 10.0 mi West 3.5 mph - N/A   Mostly Cloudy
7:54 AM 64.0 °F 57.0 °F 78% 30.01 in 10.0 mi West 4.6 mph - N/A   Overcast
8:54 AM 66.9 °F 59.0 °F 76% 30.01 in 10.0 mi WNW 4.6 mph - N/A   Mostly Cloudy
9:54 AM 73.0 °F 59.0 °F 61% 30.01 in 10.0 mi NW 12.7 mph - N/A   Clear
10:54 AM 73.9 °F 57.9 °F 57% 30.01 in 10.0 mi NW 15.0 mph 18.4 mph N/A   Mostly Cloudy
11:54 AM 75.9 °F 53.1 °F 45% 30.01 in 10.0 mi WNW 13.8 mph 21.9 mph N/A   Scattered Clouds
12:54 PM 77.0 °F 53.1 °F 43% 30.00 in 10.0 mi WNW 17.3 mph 21.9 mph N/A   Partly Cloudy
1:54 PM 79.0 °F 52.0 °F 39% 29.99 in 10.0 mi NW 12.7 mph 19.6 mph N/A   Scattered Clouds
2:54 PM 79.0 °F 51.1 °F 38% 30.00 in 10.0 mi NNW 12.7 mph 16.1 mph N/A   Mostly Cloudy
3:54 PM 78.1 °F 48.9 °F 36% 30.01 in 10.0 mi NW 11.5 mph - N/A   Scattered Clouds
4:54 PM 77.0 °F 48.0 °F 36% 30.02 in 10.0 mi NW 10.4 mph - N/A   Clear
5:54 PM 77.0 °F 48.9 °F 37% 30.02 in 10.0 mi NNW 10.4 mph - N/A   Partly Cloudy
6:54 PM 75.0 °F 50.0 °F 41% 30.02 in 10.0 mi NW 8.1 mph - N/A   Partly Cloudy
7:54 PM 70.0 °F 50.0 °F 49% 30.04 in 10.0 mi NW 4.6 mph - N/A   Partly Cloudy
8:54 PM 66.9 °F 51.1 °F 57% 30.06 in 10.0 mi NNW 3.5 mph - N/A   Mostly Cloudy
9:54 PM 66.0 °F 51.1 °F 59% 30.07 in 10.0 mi NNW 4.6 mph - N/A   Overcast
10:54 PM 63.0 °F 52.0 °F 67% 30.09 in 10.0 mi NW 3.5 mph - N/A   Overcast
11:54 PM 61.0 °F 52.0 °F 72% 30.10 in 10.0 mi North 3.5 mph - N/A   Clear